Voltar ao catálogo

AAC-HSI-SAT2

AtivoCiênciaSSO
NORAD 56995·PAYLOAD·🇬🇧 United Kingdom

Lançado Jun 12, 2023 de Vandenberg Space Force Base

Loading…

Próximas Passagens (próximas 24 horas)

TLE

AtualizadoSource: Space-Track

Época: Sep 14, 2026, 21:34 UTC

1 56995U 23084BX  26257.89895314  .00002841  00000-0  13158-3 0  9996
2 56995  97.8378  51.6158 0010902 230.6307 129.3963 15.20950771179970

Acompanhe AAC-HSI-SAT2 em tempo real com AllMySat

Download on the App Store